weather.gov     
National Weather Service

Regional Weather Roundup
NWS Homepage
This page is being discontinued on March 12, 2014.
The same data is available at this site. Please update your bookmarks.
Thank you, and we apologize for the inconvenience.
Please send an email to SR-SRH.Webmaster@noaa.gov with any concerns.


Current Version
Previous Version:    01  02  03  04  05  06  07  08  09  10  11  12  13  14  15  16  17  18  19  20  21  22  23  24  25  26  27  28  29  30  
   31  32  33  34  35  36  37  38  39  40  41  42  43  44  45  46  47  48  49  50  51  52  53  
[Printable]
602
ASUS41 KGYX 252110
RWRGYX
WEATHER ROUNDUP FOR MAINE AND NEW HAMPSHIRE
NATIONAL WEATHER SERVICE GRAY ME
500 PM EDT SAT OCT 25 2014

MEZ002-005-006-010-012-015-018-020-021-024-026-027-029-252200-
MAINE

CITY           SKY/WX    TMP DP  RH WIND       PRES   REMARKS
PORTLAND       PTCLDY    57  42  57 S7        29.56F
SANFORD        CLEAR     61  36  39 SW8       29.56S
BAR HARBOR     CLEAR     52  45  76 S9        29.55F
WISCASSET      CLOUDY    57  43  59 VRB3      29.56F
ROCKLAND       PTCLDY    54  45  71 S7        29.54F
FRYEBURG       CLEAR     58  40  51 CALM      29.54S
LEWISTONAUBURN MOCLDY    59  39  47 S6        29.54S
AUGUSTA        CLOUDY    61  36  39 VRB3      29.53F
WATERVILLE     MOCLDY    61  39  44 CALM      29.51S
BANGOR         MOCLDY    54  35  48 S3        29.54F
GREENVILLE       N/A     53  32  44 NW3       29.51F
MILLINOCKET    CLEAR     51  37  58 E5        29.55S
HOULTON        CLOUDY    45  41  86 NE5       29.54F
PRESQUE ISLE   CLOUDY    45  37  76 E6        29.54F
FRENCHVILLE    CLOUDY    42  38  85 E6        29.53F
CARIBOU        CLOUDY    45  40  82 E8        29.53F
$$

NHZ002-005-008-009-011-012-014-252200-
NEW HAMPSHIRE

CITY           SKY/WX    TMP DP  RH WIND       PRES   REMARKS
PORTSMOUTH     MOCLDY    64  36  36 SW2       29.55F
ROCHESTER      CLEAR     63  36  36 VRB3      29.55F
NASHUA         CLEAR     64  41  43 W5        29.58F
MANCHESTER     MOCLDY    63  39  41 W9        29.56F
CONCORD        PTCLDY    62  39  42 SW8       29.56F
LACONIA        PTCLDY    61  37  41 SW7       29.55S
PLYMOUTH       FAIR      60  44  55 CALM      29.56S
BERLIN         MOCLDY    57  39  51 VRB3      29.56S
WHITEFIELD     MOCLDY    55  41  59 CALM      29.57S
JAFFREY        PTCLDY    58  42  55 SW8G16    29.60F
LEBANON        CLOUDY    59  41  51 SW3       29.58R
MT WASHINGTON  FOG       32  31  99 W21         N/A  VSB 1/8 WCI  19
$$

VTZ005-007-008-252200-
VERMONT

CITY           SKY/WX    TMP DP  RH WIND       PRES   REMARKS
ST JOHNSBURY     N/A     56  43  61 MISG      29.54F
MONTPELIER     PTCLDY    54  42  64 S6        29.60F
BURLINGTON     CLOUDY    57  43  59 S9        29.54F
$$

MAZ007-012-024-CTZ003-RIZ002-NYZ038-NYZ072-252200-
SOUTHERN NEW ENGLAND AND NY

CITY           SKY/WX    TMP DP  RH WIND       PRES   REMARKS
BOSTON         PTCLDY    63  38  39 W10       29.58F
WORCESTER      CLEAR     58  43  57 W10       29.61F
NANTUCKET      MOCLDY    59  47  64 W17G24    29.64F
PROVIDENCE     PTCLDY    63  42  46 SW10      29.62F
HARTFORD       PTCLDY    65  41  41 W10       29.61F
ALBANY         MOCLDY    61  45  55 SE5       29.60F
NEW YORK CITY  PTCLDY    67  43  41 SW16      29.65F
$$

ANZ081-ANZ082-ANZ150-NHZ014-MEZ023>029-252200-
COASTAL MARINE OBSERVATIONS

STATION/POSITION TIME  TEMP    WIND        PRES    WAVE
                       AIR SEA DIR/SP/G            HT/PER
                 (UTC) (F)     (DEG/KT/KT) (MB)    (FT/S)
MATINICUS ROCK   2100          210/ 14/ 15 1000.6F
PORTLAND WX BUOY 2050   54 54  150/ 10/ 12 1000.5F   1/ 9
WELLS            2000   64 53  330/  2/  5  999.9F
ISLE OF SHOALS   2100   59     190/ 12/ 13 1000.4F
JEFFREYS LEDGE   2021      56                N/A     2/ 9
CASHES LEDGE BUO 2050   54 55  230/  8/ 10 1001.2F   2/ 8
$$

.............KEY..............
   WCI - WIND CHILL
   TC  - TEMPERATURE IN CELSIUS
   VSB - VISIBILITY IN MILES
   HX  - HEAT INDEX
   FAIR- INDICATES FEW OR NO CLOUDS BELOW 12,000 FT, WITH NO
         SIGNIFICANT WEATHER AND/OR OBSTRUCTIONS TO VISIBILITY.






U.S. Dept. of Commerce
NOAA National Weather Service
1325 East West Highway
Silver Spring, MD 20910
E-mail: w-nws.webmaster@noaa.gov
Page last modified: May 16, 2007
NATIONAL WEATHER SERVICE: for Safety, for Work, for Fun - FOR LIFE